Terug naar catalogus

COSMOS 839 DEB

ActiefUNKNOWN
NORAD 10444·DEBRIS·🇷🇺 Russia

Gelanceerd Jul 8, 1976 vanaf Plesetsk Cosmodrome

Loading…

Volgende Passages (komende 24 uur)

TLE

VersSource: Space-Track

Epoch: Sep 14, 2026, 08:35 UTC

1 10444U 76067V   26257.35772531 -.00000021  00000-0  86302-4 0  9991
2 10444  65.7923 250.4059 0744496 182.0247 177.7691 12.51637037290307

Volg COSMOS 839 DEB in realtime met AllMySat

Download on the App Store